Location: Aufkirchen
(47.9603°N, 11.3653°E)
Time: 17:24:55
(UTC+01:00)

Transit 2A - Pass Details

Date: 28 November 2020
Orbit: 599 x 960 km, 66.7° (Epoch: 26 January)

Event Time Altitude Azimuth Distance (km) Brightness Sun altitude
Rises 03:59:52 0° 312° (NW) 3,248 - -36.1°
Reaches altitude 10° 04:03:17 10° 291° (WNW) 2,235 - -35.5°
Maximum altitude 04:06:07 15° 256° (WSW) 1,834 - -35.0°
Drops below altitude 10° 04:08:50 10° 221° (SW) 2,102 - -34.6°
Sets 04:11:54 0° 198° (SSW) 2,948 - -34.1°
